Location: Newark
(52.2583°N, 7.1190°W)
Time: 15:41:58
(UTC+00:00)

N. Korean satellite - Visible Passes

Search period start: 19 October 2019 00:00
Search period end: 29 October 2019 00:00
Orbit: 455 x 508 km, 97.2° (Epoch: 19 October)

Date Brightness Start Highest point End Pass type
(mag) Time Alt. Az. Time Alt. Az. Time Alt. Az.
19 Oct 10.4 05:14:52 10° ENE 05:16:07 11° E 05:17:22 10° ESE visible
20 Oct 7.4 06:21:07 10° NNE 06:24:40 57° E 06:28:16 10° S visible
20 Oct 10.0 18:37:06 10° SW 18:39:06 15° W 18:41:08 10° NW visible
21 Oct 8.8 05:56:02 10° NNE 05:59:16 30° E 06:02:32 10° SSE visible
21 Oct 9.1 18:10:38 10° SSW 18:13:34 26° W 18:16:34 10° NW visible
22 Oct 9.9 05:31:18 10° NE 05:33:47 17° E 05:36:17 10° SE visible
24 Oct 7.8 06:13:17 10° NNE 06:16:49 47° E 06:20:23 10° S visible
24 Oct 9.8 18:28:46 10° SW 18:31:10 18° W 18:33:37 10° NW visible
25 Oct 9.2 05:48:16 10° NE 05:51:24 26° E 05:54:31 10° SSE visible
25 Oct 8.7 18:02:32 10° SSW 18:05:40 32° W 18:08:52 10° NNW visible
26 Oct 10.1 05:23:42 10° NE 05:25:52 15° E 05:28:02 10° SE visible
27 Oct 6.9 06:30:38 10° NNE 06:34:18 75° ESE 06:38:00 10° S visible
27 Oct 10.2 18:47:25 10° WSW 18:48:46 12° W 18:50:09 10° WNW visible
28 Oct 8.3 06:05:27 10° NNE 06:08:56 39° E 06:12:25 10° SSE visible
28 Oct 9.5 18:20:29 10° SW 18:23:12 21° W 18:25:58 10° NW visible
